Location: Burla
(50.9568°N, 10.4983°E)
Time: 08:56:57
(UTC+00:00)

Cosmos 468 Rocket - Pass Details

Date: 18 January 2026
Orbit: 740 x 774 km, 74.0° (Epoch: 16 February)

Event Time Altitude Azimuth Distance (km) Brightness Sun altitude
Exits shadow 05:33:19 - 336° (NNW) 2,394 6.2 -15.0°
Reaches altitude 10° 05:33:39 10° 336° (NNW) 2,268 6.1 -15.0°
Maximum altitude 05:38:48 85° 66° (ENE) 757 4.0 -14.2°
Drops below altitude 10° 05:43:57 10° 155° (SSE) 2,270 7.0 -13.4°
Sets 05:46:19 0° 156° (SSE) 3,195 7.8 -13.1°
